M I D A S
Marine Information and Data Acquisition System
Tripno 312 of the Zeeleeuw from 2002-08-28 07:07:12 to 2002-08-28 10:53:29
Back to CruiseResearch ActivitiesStationsMapUnderway DataData graphs

EquipmentUnitsComments
TimeDGPSUTC
LatitudeDGPSDM.mWGS84
LongitudeDGPSDM.mWGS84
SpeedMeteo Stationm/sRelative wind speed
DirectionMeteo StationdegRelative wind direction
TemperatureMeteo Stationdeg CelciusAir temperature
PressureMeteo StationPaAtmospheric pressure
HumidityMeteo Station%Relative humidity
Missing or incorrect values are displayed as -999
Metereological data collected by the RV Zeeleeuw from 2002-08-28 07:07:12 to 2002-08-28 10:53:29
Time Latitude Longitude Speed Direction Temperature Pressure Humidity
2002-08-28 07:08 51°14.745 2°54.682 16.3 214 19.3 101720 85
2002-08-28 07:09 51°14.928 2°54.532 15 216 19.2 101710 85
2002-08-28 07:10 51°15.119 2°54.377 14.5 219 19.3 101720 86
2002-08-28 07:11 51°15.308 2°54.226 16.2 214 19.2 101730 86
2002-08-28 07:12 51°15.5 2°54.07 14.3 215 19.2 101720 85
2002-08-28 07:13 51°15.687 2°53.903 14.5 211 19.2 101720 85
2002-08-28 07:14 51°15.873 2°53.732 16.4 215 19.2 101740 86
2002-08-28 07:15 51°16.061 2°53.57 14.7 211 19.2 101720 85
2002-08-28 07:16 51°16.25 2°53.408 14.5 208 19.2 101730 85
2002-08-28 07:17 51°16.439 2°53.245 15.5 211 19.2 101720 85
2002-08-28 07:18 51°16.629 2°53.083 15.1 210 19.2 101730 85
2002-08-28 07:19 51°16.814 2°52.914 15.3 212 19.2 101720 85
2002-08-28 07:20 51°17 2°52.739 15.8 210 19.1 101730 85
2002-08-28 07:21 51°17.194 2°52.592 15.4 217 19.2 101740 86
2002-08-28 07:22 51°17.405 2°52.545 17.4 228 19.2 101740 86
2002-08-28 07:23 51°17.629 2°52.541 16.3 225 19.2 101740 86
2002-08-28 07:24 51°17.854 2°52.53 16.8 233 19.1 101750 85
2002-08-28 07:25 51°18.08 2°52.513 15.7 225 19.2 101740 86
2002-08-28 07:26 51°18.307 2°52.492 17.3 227 19.1 101740 85
2002-08-28 07:27 51°18.489 2°52.65 15.9 264 19.1 101740 86
2002-08-28 07:28 51°18.568 2°52.969 15.8 266 19.1 101740 86
2002-08-28 07:29 51°18.629 2°53.291 16.4 274 19.1 101730 86
2002-08-28 07:30 51°18.692 2°53.638 15.9 275 19.2 101730 86
2002-08-28 07:31 51°18.751 2°53.975 14.6 264 19.2 101750 86
2002-08-28 07:32 51°18.81 2°54.306 14.6 268 19.2 101750 86
2002-08-28 07:33 51°18.866 2°54.636 15.4 267 19.1 101730 86
2002-08-28 07:34 51°18.924 2°54.971 14.5 265 19.2 101740 86
2002-08-28 07:35 51°18.983 2°55.317 15.1 269 19.2 101750 86
2002-08-28 07:36 51°19.04 2°55.64 15.1 266 19.2 101740 86
2002-08-28 07:37 51°19.097 2°55.974 15.5 265 19.2 101740 86
2002-08-28 07:38 51°19.156 2°56.313 16.5 268 19.2 101740 86
2002-08-28 07:39 51°19.219 2°56.651 16.3 269 19.2 101750 86
2002-08-28 07:40 51°19.299 2°56.967 15.6 264 19.2 101750 86
2002-08-28 07:41 51°19.379 2°57.289 14.4 265 19.2 101750 86
2002-08-28 07:42 51°19.461 2°57.615 16 270 19.2 101740 86
2002-08-28 07:43 51°19.537 2°57.937 16.2 264 19.2 101760 86
2002-08-28 07:44 51°19.616 2°58.251 14.8 263 19.1 101750 86
2002-08-28 07:45 51°19.692 2°58.569 14.5 267 19.1 101760 86
2002-08-28 07:46 51°19.771 2°58.901 15.7 263 19.2 101750 86
2002-08-28 07:47 51°19.846 2°59.218 16.3 266 19.2 101750 86
2002-08-28 07:48 51°19.918 2°59.524 15.9 269 19.2 101740 86
2002-08-28 07:49 51°19.994 2°59.837 16.3 264 19.2 101750 86
2002-08-28 07:50 51°20.072 3°0.161 15.3 259 19.2 101760 86
2002-08-28 07:51 51°20.148 3°0.472 15.4 263 19.2 101750 86
2002-08-28 07:52 51°20.23 3°0.766 15.7 260 19.2 101770 86
2002-08-28 07:53 51°20.314 3°1.07 16.8 263 19.3 101770 86
2002-08-28 07:54 51°20.396 3°1.384 15.5 264 19.2 101750 86
2002-08-28 07:55 51°20.477 3°1.686 16.4 272 19.2 101750 86
2002-08-28 07:56 51°20.556 3°1.979 14.5 265 19.3 101750 86
2002-08-28 07:57 51°20.639 3°2.281 16 264 19.2 101760 86
2002-08-28 07:58 51°20.721 3°2.586 15.4 261 19.3 101750 86
2002-08-28 07:59 51°20.801 3°2.881 15 259 19.2 101760 85
2002-08-28 08:00 51°20.883 3°3.19 14.1 266 19.2 101760 85
2002-08-28 08:01 51°20.973 3°3.485 14 261 19.3 101760 86
2002-08-28 08:02 51°21.064 3°3.778 14.1 260 19.3 101770 86
2002-08-28 08:03 51°21.152 3°4.062 15.5 262 19.3 101770 86
2002-08-28 08:04 51°21.241 3°4.366 15.7 262 19.3 101750 85
2002-08-28 08:05 51°21.33 3°4.662 15.8 256 19.2 101770 85
2002-08-28 08:06 51°21.415 3°4.952 15.3 255 19.3 101770 85
2002-08-28 08:07 51°21.505 3°5.249 14.7 266 19.3 101760 85
2002-08-28 08:08 51°21.59 3°5.543 14.5 263 19.3 101770 85
2002-08-28 08:09 51°21.667 3°5.843 16.3 263 19.3 101770 85
2002-08-28 08:10 51°21.742 3°6.145 15.4 262 19.3 101760 85
2002-08-28 08:11 51°21.792 3°6.458 14.7 267 19.3 101760 85
2002-08-28 08:12 51°21.848 3°6.769 14.6 269 19.3 101760 85
2002-08-28 08:13 51°21.903 3°7.079 15.4 267 19.3 101770 85
2002-08-28 08:14 51°21.947 3°7.392 14.1 261 19.2 101770 85
2002-08-28 08:15 51°21.99 3°7.709 14.5 273 19.2 101780 85
2002-08-28 08:16 51°22.032 3°8.032 15.1 267 19.3 101770 85
2002-08-28 08:17 51°22.075 3°8.342 13.5 267 19.3 101760 85
2002-08-28 08:18 51°22.107 3°8.628 12.5 267 19.3 101780 85
2002-08-28 08:19 51°22.1 3°8.859 11.4 279 19.3 101780 85
2002-08-28 08:20 51°22.096 3°9.069 12.3 279 19.3 101780 85
2002-08-28 08:21 51°22.094 3°9.288 13 280 19.3 101780 85
2002-08-28 08:22 51°22.116 3°9.583 14 267 19.4 101770 85
2002-08-28 08:23 51°22.179 3°9.881 14 263 19.4 101780 85
2002-08-28 08:24 51°22.239 3°10.171 14.5 266 19.4 101770 85
2002-08-28 08:25 51°22.296 3°10.473 14.3 269 19.3 101770 85
2002-08-28 08:26 51°22.358 3°10.783 14.2 264 19.4 101760 85
2002-08-28 08:27 51°22.409 3°11.068 13.2 267 19.5 101760 85
2002-08-28 08:28 51°22.454 3°11.371 13.6 269 19.4 101770 85
2002-08-28 08:29 51°22.5 3°11.683 12.9 273 19.5 101760 85
2002-08-28 08:30 51°22.537 3°11.983 12.9 272 19.5 101770 85
2002-08-28 08:31 51°22.578 3°12.286 14.3 278 19.4 101770 85
2002-08-28 08:32 51°22.615 3°12.584 12.9 270 19.5 101770 85
2002-08-28 08:33 51°22.652 3°12.893 13.7 271 19.5 101770 85
2002-08-28 08:34 51°22.692 3°13.19 13.8 272 19.5 101780 85
2002-08-28 08:35 51°22.732 3°13.493 13.3 267 19.5 101770 85
2002-08-28 08:36 51°22.771 3°13.802 13.9 272 19.5 101760 85
2002-08-28 08:37 51°22.81 3°14.102 14.7 266 19.4 101770 85
2002-08-28 08:38 51°22.849 3°14.396 13.7 276 19.4 101770 85
2002-08-28 08:39 51°22.89 3°14.703 13.7 278 19.4 101760 85
2002-08-28 08:40 51°22.93 3°15.008 12.9 274 19.4 101770 85
2002-08-28 08:41 51°22.97 3°15.307 12.9 276 19.4 101760 85
2002-08-28 08:42 51°23.007 3°15.615 14.6 267 19.4 101770 85
2002-08-28 08:43 51°23.042 3°15.912 13.6 274 19.5 101770 85
2002-08-28 08:44 51°23.076 3°16.199 13.5 262 19.4 101760 85
2002-08-28 08:45 51°23.229 3°16.347 16 232 19.5 101770 85
2002-08-28 08:46 51°23.438 3°16.33 17.4 229 19.4 101770 84
2002-08-28 08:47 51°23.661 3°16.297 14.3 232 19.4 101770 85
2002-08-28 08:48 51°23.881 3°16.257 15.8 232 19.5 101770 85
2002-08-28 08:49 51°24.116 3°16.215 16 231 19.5 101770 85
2002-08-28 08:50 51°24.347 3°16.178 17.6 226 19.5 101770 85
2002-08-28 08:51 51°24.56 3°15.985 14.5 208 19.5 101770 85
2002-08-28 08:52 51°24.656 3°15.583 11.5 179 19.4 101760 85
2002-08-28 08:53 51°24.628 3°15.149 10.9 170 19.3 101780 85
2002-08-28 08:54 51°24.607 3°14.7 9.9 173 19.4 101770 85
2002-08-28 08:55 51°24.592 3°14.267 12.8 170 19.4 101780 86
2002-08-28 08:56 51°24.567 3°13.833 10.6 178 19.3 101780 86
2002-08-28 08:57 51°24.54 3°13.388 10.6 177 19.3 101780 85
2002-08-28 08:58 51°24.515 3°12.957 9.8 174 19.3 101780 86
2002-08-28 08:59 51°24.485 3°12.54 10.6 178 19.3 101790 86
2002-08-28 09:00 51°24.456 3°12.102 10.6 166 19.2 101790 85
2002-08-28 09:01 51°24.418 3°11.66 8.9 180 19.2 101790 85
2002-08-28 09:02 51°24.381 3°11.206 10.7 173 19.2 101780 85
2002-08-28 09:03 51°24.347 3°10.781 9.3 171 19.2 101800 85
2002-08-28 09:04 51°24.33 3°10.37 8.5 183 19.2 101790 85
2002-08-28 09:05 51°24.357 3°9.961 11 186 19.2 101790 85
2002-08-28 09:06 51°24.441 3°9.573 13 195 19.2 101790 85
2002-08-28 09:07 51°24.542 3°9.174 10.6 188 19.2 101790 85
2002-08-28 09:08 51°24.631 3°8.798 10.3 186 19.3 101790 85
2002-08-28 09:09 51°24.721 3°8.426 10.5 186 19.2 101790 85
2002-08-28 09:10 51°24.811 3°8.055 11.3 184 19.2 101780 85
2002-08-28 09:11 51°24.914 3°7.703 12.5 201 19.2 101790 85
2002-08-28 09:12 51°25.093 3°7.5 16.3 219 19.2 101780 85
2002-08-28 09:13 51°25.319 3°7.502 16.3 232 19.2 101810 85
2002-08-28 09:14 51°25.511 3°7.633 16.1 237 19.3 101770 85
2002-08-28 09:15 51°25.719 3°7.775 15.6 240 19.3 101780 85
2002-08-28 09:16 51°25.915 3°7.93 16.7 243 19.4 101780 85
2002-08-28 09:17 51°26.103 3°8.076 16.1 240 19.4 101770 85
2002-08-28 09:18 51°26.295 3°8.228 15.2 235 19.3 101770 85
2002-08-28 09:19 51°26.482 3°8.387 17.8 238 19.3 101780 85
2002-08-28 09:20 51°26.676 3°8.562 16.1 239 19.3 101780 85
2002-08-28 09:21 51°26.864 3°8.732 16.2 240 19.3 101780 84
2002-08-28 09:22 51°27.046 3°8.901 15.7 238 19.3 101770 85
2002-08-28 09:23 51°27.229 3°9.071 18.2 240 19.3 101780 85
2002-08-28 09:24 51°27.414 3°9.239 16.8 240 19.3 101760 85
2002-08-28 09:25 51°27.599 3°9.411 17 242 19.3 101780 85
2002-08-28 09:26 51°27.79 3°9.591 17.6 244 19.3 101780 85
2002-08-28 09:27 51°27.983 3°9.702 16.8 237 19.3 101800 84
2002-08-28 09:28 51°28.192 3°9.803 15.3 240 19.3 101790 84
2002-08-28 09:29 51°28.381 3°9.964 15.7 243 19.3 101780 85
2002-08-28 09:30 51°28.554 3°10.133 16.3 244 19.3 101790 85
2002-08-28 09:31 51°28.737 3°10.3 16.7 235 19.3 101780 84
2002-08-28 09:32 51°28.923 3°10.181 12.7 194 19.3 101790 84
2002-08-28 09:33 51°28.936 3°9.803 6.7 157 19.2 101800 84
2002-08-28 09:34 51°28.783 3°9.51 5 143 19.2 101820 84
2002-08-28 09:35 51°28.599 3°9.213 5 137 19.2 101840 85
2002-08-28 09:36 51°28.396 3°8.961 2.7 152 19.2 101830 85
2002-08-28 09:37 51°28.191 3°8.739 3.4 143 19.2 101830 84
2002-08-28 09:38 51°27.982 3°8.519 3.7 117 19.2 101830 85
2002-08-28 09:39 51°27.773 3°8.287 3.7 121 19.1 101830 85
2002-08-28 09:40 51°27.561 3°8.059 2.1 96 19.1 101840 85
2002-08-28 09:41 51°27.352 3°7.854 2.4 150 19.2 101830 85
2002-08-28 09:42 51°27.136 3°7.619 1.9 147 19.2 101830 84
2002-08-28 09:43 51°26.921 3°7.404 2.7 106 19.2 101840 84
2002-08-28 09:44 51°26.706 3°7.19 3.6 133 19.1 101840 85
2002-08-28 09:45 51°26.498 3°6.972 3 131 19.2 101840 85
2002-08-28 09:46 51°26.282 3°6.752 3.9 143 19.2 101830 85
2002-08-28 09:47 51°26.076 3°6.522 6.5 145 19.2 101830 84
2002-08-28 09:48 51°25.939 3°6.21 6.6 151 19.2 101820 84
2002-08-28 09:49 51°25.792 3°5.859 4.2 159 19.2 101830 84
2002-08-28 09:50 51°25.643 3°5.545 7.5 149 19.2 101830 85
2002-08-28 09:51 51°25.486 3°5.211 4.5 162 19.2 101830 84
2002-08-28 09:52 51°25.32 3°4.859 5.1 143 19.2 101830 84
2002-08-28 09:53 51°25.156 3°4.547 6.2 147 19.2 101830 84
2002-08-28 09:54 51°24.965 3°4.281 2.5 131 19.2 101830 84
2002-08-28 09:55 51°24.753 3°4.062 1.5 89 19.2 101850 84
2002-08-28 09:56 51°24.517 3°3.931 1.7 342 19.3 101840 85
2002-08-28 09:57 51°24.276 3°3.9 2.8   19.3 101840 84
2002-08-28 09:58 51°24.041 3°3.83 0.4 17 19.3 101850 84
2002-08-28 09:59 51°23.803 3°3.722 0.5 51 19.4 101840 84
2002-08-28 10:00 51°23.579 3°3.545 2.7 111 19.5 101840 84
2002-08-28 10:01 51°23.369 3°3.314 2.1 87 19.4 101840 83
2002-08-28 10:02 51°23.155 3°3.103 4.1 134 19.4 101840 84
2002-08-28 10:03 51°22.932 3°2.906 2.9 118 19.5 101840 83
2002-08-28 10:04 51°22.713 3°2.703 3.4 115 19.5 101840 83
2002-08-28 10:05 51°22.491 3°2.503 2.8 105 19.5 101840 84
2002-08-28 10:06 51°22.274 3°2.306 3 125 19.5 101840 83
2002-08-28 10:07 51°22.067 3°2.06 5.5 145 19.4 101830 83
2002-08-28 10:08 51°21.913 3°1.736 5.9 144 19.4 101830 83
2002-08-28 10:09 51°21.769 3°1.404 7 156 19.3 101830 83
2002-08-28 10:10 51°21.625 3°1.065 5.7 164 19.3 101830 83
2002-08-28 10:11 51°21.491 3°0.713 8.7 148 19.4 101830 83
2002-08-28 10:12 51°21.349 3°0.36 6.7 147 19.3 101830 83
2002-08-28 10:13 51°21.209 3°0.019 5.2 155 19.3 101830 83
2002-08-28 10:14 51°21.066 2°59.673 7.9 150 19.4 101830 84
2002-08-28 10:15 51°20.927 2°59.314 8.3 141 19.4 101830 83
2002-08-28 10:16 51°20.79 2°58.963 5.4 156 19.4 101830 83
2002-08-28 10:17 51°20.656 2°58.619 5.4 157 19.3 101830 83
2002-08-28 10:18 51°20.519 2°58.271 5.7 153 19.3 101830 83
2002-08-28 10:19 51°20.378 2°57.915 6.1 143 19.3 101840 83
2002-08-28 10:20 51°20.241 2°57.573 7.5 159 19.3 101830 83
2002-08-28 10:21 51°20.105 2°57.217 8.1 147 19.4 101820 83
2002-08-28 10:22 51°19.956 2°56.883 5.9 150 19.3 101830 83
2002-08-28 10:23 51°19.808 2°56.544 5.3 149 19.3 101830 83
2002-08-28 10:24 51°19.657 2°56.208 7.3 141 19.4 101830 83
2002-08-28 10:25 51°19.512 2°55.875 7.1 140 19.4 101830 83
2002-08-28 10:26 51°19.361 2°55.543 6.5 146 19.4 101830 83
2002-08-28 10:27 51°19.213 2°55.207 5.5 141 19.3 101830 83
2002-08-28 10:28 51°19.063 2°54.872 5.7 130 19.3 101840 83
2002-08-28 10:29 51°18.911 2°54.53 6.5 142 19.3 101830 83
2002-08-28 10:30 51°18.761 2°54.189 6 142 19.3 101830 83
2002-08-28 10:31 51°18.611 2°53.858 6.2 147 19.3 101840 83
2002-08-28 10:32 51°18.462 2°53.509 6.2 150 19.3 101840 82
2002-08-28 10:33 51°18.312 2°53.169 5.9 171 19.3 101830 83
2002-08-28 10:34 51°18.164 2°52.84 7.7 151 19.4 101820 83
2002-08-28 10:35 51°17.983 2°52.554 2.1 115 19.3 101830 83
2002-08-28 10:36 51°17.746 2°52.401 0.9 331 19.4 101840 83
2002-08-28 10:37 51°17.495 2°52.341 2.1 351 19.5 101840 83
2002-08-28 10:38 51°17.239 2°52.319 1 327 19.5 101840 83
2002-08-28 10:39 51°17 2°52.408 3.6 299 19.5 101840 82
2002-08-28 10:40 51°16.788 2°52.602 7.6 291 19.5 101840 83
2002-08-28 10:41 51°16.592 2°52.822 7.9 295 19.6 101840 82
2002-08-28 10:42 51°16.386 2°53.015 8.2 294 19.7 101840 83
2002-08-28 10:43 51°16.173 2°53.2 2.7 305 19.7 101840 82
2002-08-28 10:44 51°15.954 2°53.382 7.5 301 19.8 101840 82
2002-08-28 10:45 51°15.741 2°53.546 7.7 305 19.8 101840 82
2002-08-28 10:46 51°15.53 2°53.727 5.8 294 19.8 101840 81
2002-08-28 10:47 51°15.317 2°53.897 7.2 315 19.9 101840 81
2002-08-28 10:48 51°15.13 2°54.109 5.6 323 19.9 101840 81
2002-08-28 10:49 51°14.931 2°54.293 5.5 300 20 101840 82
2002-08-28 10:50 51°14.754 2°54.516 7.1 297 20 101840 81
2002-08-28 10:51 51°14.594 2°54.713 8.1 300 19.9 101830 80
2002-08-28 10:52 51°14.446 2°54.934 11.2 300 20 101840 81